Regional Weather Roundup
Issued by NWS Charleston, SC

Current Version | Previous Version | Graphics & Text | Print | Product List | Glossary On
Versions: 1 2 3 4 5 6 7 8 9 10 11 12 13 14 15 16 17 18 19 20 21 22 23 24 25 26 27 28 29 30 31 32 33 34 35 36 37 38 39 40 41 42 43 44 45 46 47 48 49 50
000
ASUS42 KCHS 092027
RWRCHS

REGIONAL WEATHER ROUNDUP
NATIONAL WEATHER SERVICE CHARLESTON SC
300 PM EST TUE FEB 09 2016

NOTE: "FAIR" INDICATES FEW OR NO CLOUDS BELOW 12,000 FEET WITH NO
SIGNIFICANT WEATHER AND/OR OBSTRUCTIONS TO VISIBILITY.

NOT ALL STATIONS ARE QUALITY CONTROLLED BY THE NATIONAL
WEATHER SERVICE. USE DATA WITH CAUTION...ESPECIALLY
DEWPOINT OBSERVATIONS.

SCZ027-030-031-034>040-042>050-092100-
...SOUTHEAST SOUTH CAROLINA...

CITY           SKY/WX    TMP DP  RH WIND       PRES   REMARKS
N CHARLESTON   CLOUDY    45  26  47 W16G24    29.78R
WATERFRONT PRK   N/A     44  28  53 W9        29.63S
MOUNT PLEASANT CLOUDY    45  28  53 SW14G23   29.78S
JOHNS ISLAND   CLOUDY    45  27  49 W12G18    29.79S
PINOPOLIS        N/A     45  28  53 W18       29.68S
MONCKS CORNER  CLOUDY    41  23  48 W9        29.77S
SUMMERVILLE    CLOUDY    45  28  53 W12G18    29.79S
BEAUFORT MCAS  CLOUDY    44  24  45 W22G31    29.82R
BEAUFORT ARPT  CLOUDY    43  27  52 W26G32    29.82R
HILTON HEAD IS MOSUNNY   45  25  45 W17G29    29.83S
WALTERBORO     CLOUDY    45  25  45 W16G22    29.80R
ALLENDALE      CLOUDY    43  21  42 W8        29.81R

...SOUTHERN MIDLANDS AND PEE DEE...

CITY           SKY/WX    TMP DP  RH WIND       PRES   REMARKS
GEORGETOWN     NOT AVBL
KINGSTREE      NOT AVBL
ORANGEBURG     CLOUDY    41  24  51 W13       29.79R
BARNWELL       CLOUDY    41  25  52 W14G21    29.82R
AIKEN          CLOUDY    36  23  60 W13G18    29.82R WCI  27
MANNING        CLOUDY    41  23  48 W7G17     29.77S
COLUMBIA       CLOUDY    42  22  44 W15G24    29.77S
SUMTER         CLOUDY    40  23  50 W18G26    29.74R WCI  31
FLORENCE       CLOUDY    41  24  51 W20G29    29.73R
MYRTLE BEACH   PTSUNNY   46  25  42 W16G23    29.74S
N MYRTLE BEACH CLOUDY    45  24  43 W15G22    29.72R

$$

GAZ063-065-086>088-099>101-113>116-118-119-134>141-150-092100-
...SOUTHEAST GEORGIA...

CITY           SKY/WX    TMP DP  RH WIND       PRES   REMARKS
SAVANNAH ARPT  PTSUNNY   49  23  36 W22G28    29.83F
HUNTER AAF     MOSUNNY   48  23  37 W16G26    29.80F
FORT STEWART   PTSUNNY   47  22  36 W15G24    29.81F
STATESBORO     CLOUDY    47  16  28 NW16G24   29.84S
SYLVANIA       CLOUDY    44  26  48 W14G25    29.84R
CLAXTON        MOCLDY    46  27  46 SW14G21   29.84S

...CSRA...CENTRAL AND FAR SOUTHEAST GEORGIA...

CITY           SKY/WX    TMP DP  RH WIND       PRES   REMARKS
THOMSON        CLOUDY    40  26  56 W9        29.86R WCI  34
AUGUSTA-BUSH   CLOUDY    39  21  48 W18G28    29.82R WCI  30
AUGUSTA-DANIEL CLOUDY    39  20  46 W9G18     29.81S WCI  33
SWAINSBORO     CLOUDY    43  23  45 W13G22    29.85R
VIDALIA        CLOUDY    46  23  39 NW16G22   29.84S
EASTMAN        CLOUDY    46  20  36 W9G21     29.88R
HAZLEHURST     MOCLDY    49  21  33 W10G18    29.83F
ALMA           MOSUNNY   49  21  33 SW18G32   29.85F
WAYCROSS       SUNNY     53  25  33 W17G31    29.86S
JESUP          FAIR      52  27  37 NW22G32   29.85S
BAXLEY         PTSUNNY   50  21  32 W16G26    29.84F
BRUNSWICK      SUNNY     52  23  32 W22G35    29.86S
SAINT SIMONS   SUNNY     51  21  30 W17G33    29.84F

$$

SCZ027-028-034-036>038-045-046-048>050-GAZ119-141-092100-
...LAKE AND SUPPLEMENTAL COASTAL OBSERVATIONS...

STATION/POSITION TIME  TEMP    WIND        PRES    WAVE   SWELL
                       AIR SEA DIR/SP/G            HT/PER HT/PER/DIR
                 (UTC) (F)     (DEG/KT/KT) (MB)    (FT/S) (FT/S/D)
WINYAH BAY       1900   45     270/ 10     1006.0
LAKE MURRAY      1900   39     250/ 17/ 24 1007.1F
ACE BASIN NERRS  1900   44     260/  7     1009.0S
FORT PULASKI     2000   45 51  270/ 19/ 23 1010.1F
SAPELO ISLAND    2000   49     260/ 21     1010.0F

$$

ANZ835-935-AMZ111-154-330-350-352-354-370-450-454-472-092100-
...C-MAN AND BUOY OBSERVATIONS...

STATION/POSITION TIME  TEMP    WIND        PRES    WAVE   SWELL
                       AIR SEA DIR/SP/G            HT/PER HT/PER/DIR
                 (UTC) (F)     (DEG/KT/KT) (MB)    (FT/S) (FT/S/D)
BUOY 41004       1950   48 65  270/ 23/ 33 1007.3F   9/ 7   2/12
BUOY 41008       1950   48 54  270/ 21/ 27 1010.4F   5/ 5
FOLLY BEACH CMAN 2000   44     260/ 13/ 20 1008.6R
CAPERS NEARSHORE 1908   45     270/ 21/ 27 1007.4F
FRIPP NEARSHORE  1900   46     270/ 23/ 27 1009.2F


STATION/POSITION TIME  TEMP    WIND        PRES    WAVE   SWELL
                       AIR SEA DIR/SP/G            HT/PER HT/PER/DIR
                 (UTC) (F)     (DEG/KT/KT) (MB)    (FT/S) (FT/S/D)
5E ST. MARYS GA  1921      56                N/A     4/ 4   2/ 90/17
FRYING PAN BUOY  2000   46 53  250/ 21/ 29 1006.5S
BUOY 41025       1950   48 74  290/ 16/ 19 1003.0R  12/14  11/ 80/14
CAPE LOOKOUT NC  NOT AVBL
BUOY 41002       1950   57 69  280/ 29/ 35   N/A    16/10  10/300/13
BUOY 41010       1920   58 72              1013.8F
ST AUGUSTINE FL  2000   56 57  250/ 19/ 26 1012.0F


$$



USA.gov is the U.S. government's official web portal to all federal, state and local government web resources and services.